This is the latest recevied weather packets stored in our database for station/object OK1ALX-6. If no packets are shown the sender has not sent any weather packets the latest 10 day(s).
| Time | Temp. | Humidity | Pressure | Rain* | Wind** | Luminosity | Snow |
|---|---|---|---|---|---|---|---|
| 1777538403 | 8.33° C | 39% | 1038.4 hPa | 0 mm | - | 613 W/m² | - |
| 1777537804 | 7.78° C | 41% | 1038.4 hPa | 0 mm | - | 602 W/m² | - |
| 1777537203 | 7.78° C | 40% | 1038.2 hPa | 0 mm | - | 594 W/m² | - |
| 1777536611 | 7.78° C | 36% | 1038.6 hPa | 0 mm | - | 583 W/m² | - |
| 1777536003 | 7.78° C | 42% | 1038.8 hPa | 0 mm | - | 562 W/m² | - |
| 1777535403 | 6.67° C | 44% | 1038.9 hPa | 0 mm | - | 531 W/m² | - |
| 1777534803 | 6.67° C | 46% | 1038.9 hPa | 0 mm | - | 519 W/m² | - |
| 1777534203 | 6.11° C | 46% | 1038.8 hPa | 0 mm | - | 464 W/m² | - |
| 1777533603 | 6.11° C | 47% | 1039.1 hPa | 0 mm | - | 409 W/m² | - |
| 1777533011 | 5.56° C | 48% | 1039 hPa | 0 mm | - | 376 W/m² | - |
| 1777532403 | 5.56° C | 49% | 1039 hPa | 0 mm | - | 342 W/m² | - |
| 1777531803 | 5° C | 50% | 1039.2 hPa | 0 mm | - | 303 W/m² | - |
| 1777531203 | 5° C | 51% | 1039.2 hPa | 0 mm | - | 266 W/m² | - |
| 1777530603 | 3.89° C | 53% | 1039.2 hPa | 0 mm | - | 233 W/m² | - |
| 1777530003 | 4.44° C | 53% | 1039.1 hPa | 0 mm | - | 214 W/m² | - |
| 1777529403 | 3.89° C | 55% | 1038.9 hPa | 0 mm | - | 179 W/m² | - |
| 1777528804 | 2.78° C | 57% | 1039.1 hPa | 0 mm | - | 155 W/m² | - |
| 1777528203 | 2.78° C | 57% | 1039.3 hPa | 0 mm | - | 139 W/m² | - |
| 1777527603 | 2.22° C | 60% | 1039.2 hPa | 0 mm | - | 125 W/m² | - |
| 1777527003 | 2.22° C | 59% | 1039.1 hPa | 0 mm | - | 75 W/m² | - |
| 1777526404 | 2.78° C | 61% | 1039.1 hPa | 0 mm | - | 64 W/m² | - |
| 1777525803 | 1.67° C | 65% | 1039.5 hPa | 0 mm | - | 55 W/m² | - |
| 1777525204 | 0° C | 70% | 1039.5 hPa | 0 mm | - | 48 W/m² | - |
| 1777524603 | -0.56° C | 72% | 1039.4 hPa | 0 mm | - | 42 W/m² | - |
| 1777524012 | -0.56° C | 71% | 1039.6 hPa | 0 mm | - | 35 W/m² | - |
* Rain latest hour (hover to see other rain measurements)
** Current wind speed in m/s (hover to see current wind gust speed)